EW9433 Weather Reports


Display with metric or nautical units.
time (UTC)temp
F
wind
direction
speed
MPH
gust
MPH
rain 1hr
in
rain 24hr
in
rain mn
in
humidity
%
barometer
mb
20171211033018 38 0.0 1.0 0.00 0.00 0.00 65 1024.3
20171211030026 40 0.0 1.0 0.00 0.00 0.00 68 1024.3
20171211023024 41 0.0 1.0 0.00 0.00 0.00 58 1024.4
20171211020018 44 0.0 2.0 0.00 0.00 0.00 56 1024.1
20171211013018 46 0.0 0.0 0.00 0.00 0.00 48 1024.0
20171211010015 50 0.0 0.0 0.00 0.00 0.00 39 1024.1
20171211003015 55 0.0 1.0 0.00 0.00 0.00 30 1024.2
20171211000016 62 225 1.0 4.0 0.00 0.00 0.00 25 1024.2
20171210233020 65 225 1.0 4.0 0.00 0.00 0.00 22 1024.1
20171210230015 68 247 4.0 10.0 0.00 0.00 0.00 19 1024.0
20171210223015 70 270 6.0 12.0 0.00 0.00 0.00 18 1024.0
20171210220016 70 270 6.0 13.0 0.00 0.00 0.00 19 1024.0
20171210213015 70 247 6.0 12.0 0.00 0.00 0.00 23 1024.1
20171210210015 69 247 6.0 13.0 0.00 0.00 0.00 22 1024.1
20171210203022 69 247 6.0 12.0 0.00 0.00 0.00 23 1024.4
20171210200015 67 270 7.0 13.0 0.00 0.00 0.00 24 1024.9
20171210193015 67 247 7.0 15.0 0.00 0.00 0.00 25 1025.2
20171210190016 66 270 6.0 13.0 0.00 0.00 0.00 24 1025.7
20171210183015 64 270 6.0 15.0 0.00 0.00 0.00 25 1026.1
20171210180015 63 247 6.0 11.0 0.00 0.00 0.00 29 1026.5
20171210173017 61 247 6.0 12.0 0.00 0.00 0.00 32 1027.0
20171210170017 58 270 5.0 10.0 0.00 0.00 0.00 37 1027.3
20171210163017 54 247 4.0 8.0 0.00 0.00 0.00 41 1027.7
20171210160017 49 247 3.0 6.0 0.00 0.00 0.00 53 1027.9
20171210153017 43 270 1.0 5.0 0.00 0.00 0.00 68 1028.0
20171210150018 34 0.0 1.0 0.00 0.00 0.00 89 1028.1
20171210143017 27 0.0 0.0 0.00 0.00 0.00 94 1027.9
20171210140017 25 0.0 0.0 0.00 0.00 0.00 93 1027.9
20171210133017 23 0.0 0.0 0.00 0.00 0.00 92 1027.6
20171210130017 24 0.0 0.0 0.00 0.00 0.00 92 1027.5
20171210123017 24 0.0 0.0 0.00 0.00 0.00 92 1027.1
20171210120017 24 0.0 0.0 0.00 0.00 0.00 92 1027.0
20171210113017 25 0.0 0.0 0.00 0.00 0.00 91 1026.8
20171210110016 25 0.0 0.0 0.00 0.00 0.00 91 1026.6
20171210103017 25 0.0 0.0 0.00 0.00 0.00 90 1026.8
20171210100016 25 0.0 0.0 0.00 0.00 0.00 90 1026.8
20171210093016 26 0.0 0.0 0.00 0.00 0.00 91 1026.8
20171210090017 27 0.0 0.0 0.00 0.00 0.00 89 1027.0
20171210083016 27 0.0 0.0 0.00 0.00 0.00 88 1027.0
20171210080020 28 0.0 0.0 0.00 0.00 0.00 88 1027.1
20171210073017 27 0.0 0.0 0.00 0.00 0.00 87 1027.2
20171210070016 28 0.0 0.0 0.00 0.00 0.00 86 1027.4
20171210063017 29 0.0 0.0 0.00 0.00 0.00 83 1027.2
20171210060020 30 0.0 0.0 0.00 0.00 0.00 83 1027.3
20171210053015 29 0.0 0.0 0.00 0.00 0.00 82 1027.2
20171210050015 31 0.0 0.0 0.00 0.00 0.00 82 1026.9
20171210043015 32 0.0 0.0 0.00 0.00 0.00 80 1026.6
20171210040018 32 0.0 0.0 0.00 0.00 0.00 77 1026.1